Weather History for Fort Myers, FL

Change the Weather History Date:

Thursday, March 28, 2013

  Actual Average Record
Temperature  
Mean Temperature 60 °F 71 °F  
Max Temperature 76 °F 82 °F 91 °F (1975)
Min Temperature 43 °F 61 °F 43 °F (2013)
Degree Days  
Heating Degree Days 5 0  
Month to date heating degree days 83 21  
Since 1 July heating degree days 199 281  
Cooling Degree Days 0 7  
Month to date cooling degree days 65 156  
Year to date cooling degree days 376 341  
Growing Degree Days 10 (Base 50)    
Moisture  
Dew Point 37 °F    
Average Humidity 50    
Maximum Humidity 83    
Minimum Humidity 15    
Precipitation  
Precipitation 0.00 in 0.08 in 1.87 in (1903)
Month to date precipitation 0.78 2.62  
Year to date precipitation 3.26 6.71  
Sea Level Pressure  
Sea Level Pressure 30.25 in    
Wind  
Wind Speed 7 mph (North)    
Max Wind Speed 16 mph    
Max Gust Speed 21 mph    
Visibility 10 miles    
Events      
T = Trace of Precipitation, MM = Missing Value Source: NWS Daily Summary

Daily Weather History Graph

Daily Weather History Graph

Search for Another Location

Airport:

Trip Planner

Search our weather history database for the weather conditions in past years. The results will help you decide how hot, cold, wet, or windy it might be!

Date:

Astronomy

Mar. 28, 2013 Rise Set
Actual Time 7:22 AM EDT 7:42 PM EDT
Civil Twilight 6:59 AM EDT 8:05 PM EDT
Nautical Twilight 6:32 AM EDT 8:33 PM EDT
Astronomical Twilight 6:04 AM EDT 9:00 PM EDT
Moon 9:18 PM EDT (3/28) 8:00 AM EDT (3/28)
Length of Visible Light 13h 06m
Length of Day
12h 20m
Full, 98% of the Moon is Illuminated
Mar 28
Full
Apr 3
Last Quarter
Apr 10
New
Apr 18
First Quarter
Apr 25
Full

Hourly Weather History & Observations

Time (EDT) Temp. Windchill Dew Point Humidity Pressure Visibility Wind Dir Wind Speed Gust Speed Precip Events Conditions
12:53 AM 50.0 °F - 37.0 °F 61% 30.27 in 10.0 mi North 10.4 mph - N/A   Clear
1:53 AM 48.0 °F - 37.0 °F 66% 30.28 in 10.0 mi North 8.1 mph - N/A   Clear
2:53 AM 46.9 °F - 37.0 °F 68% 30.26 in 10.0 mi North 10.4 mph - N/A   Clear
3:53 AM 46.0 °F 42.5 °F 37.9 °F 73% 30.25 in 10.0 mi NNE 6.9 mph - N/A   Clear
4:53 AM 45.0 °F 41.2 °F 37.9 °F 76% 30.24 in 10.0 mi NNE 6.9 mph - N/A   Clear
5:53 AM 44.1 °F 40.1 °F 37.9 °F 79% 30.25 in 10.0 mi NNE 6.9 mph - N/A   Clear
6:53 AM 44.1 °F 40.1 °F 37.9 °F 79% 30.25 in 10.0 mi NE 6.9 mph - N/A   Clear
7:53 AM 44.1 °F 42.5 °F 39.0 °F 82% 30.26 in 10.0 mi NE 3.5 mph - N/A   Clear
8:53 AM 51.1 °F - 41.0 °F 68% 30.29 in 10.0 mi NE 5.8 mph - N/A   Clear
9:53 AM 57.0 °F - 39.9 °F 53% 30.31 in 10.0 mi NE 6.9 mph - N/A   Clear
10:53 AM 62.1 °F - 32.0 °F 32% 30.31 in 10.0 mi ENE 9.2 mph - N/A   Clear
11:53 AM 64.0 °F - 32.0 °F 30% 30.31 in 10.0 mi NNE 8.1 mph - N/A   Clear
12:53 PM 66.9 °F - 30.9 °F 26% 30.29 in 10.0 mi North 6.9 mph - N/A   Clear
1:53 PM 69.1 °F - 26.1 °F 20% 30.26 in 10.0 mi Variable 4.6 mph - N/A   Clear
2:53 PM 73.0 °F - 28.0 °F 19% 30.23 in 10.0 mi Variable 5.8 mph - N/A   Clear
3:53 PM 73.0 °F - 25.0 °F 17% 30.20 in 10.0 mi North 8.1 mph - N/A   Clear
4:53 PM 75.0 °F - 25.0 °F 16% 30.19 in 10.0 mi North 8.1 mph - N/A   Clear
5:53 PM 72.0 °F - 39.0 °F 30% 30.19 in 10.0 mi NW 12.7 mph 19.6 mph N/A   Clear
6:08 PM 69.8 °F - 41.0 °F 35% 30.18 in 10.0 mi NW 13.8 mph - N/A   Clear
6:53 PM 66.0 °F - 43.0 °F 43% 30.21 in 10.0 mi WNW 10.4 mph - N/A   Clear
7:53 PM 63.0 °F - 43.0 °F 48% 30.23 in 10.0 mi NW 10.4 mph - N/A   Clear
8:53 PM 61.0 °F - 45.0 °F 56% 30.24 in 10.0 mi NW 9.2 mph - N/A   Clear
9:53 PM 59.0 °F - 46.9 °F 64% 30.26 in 10.0 mi Calm Calm - N/A   Clear
10:53 PM 57.9 °F - 45.0 °F 62% 30.27 in 10.0 mi Calm Calm - N/A   Clear
11:53 PM 57.9 °F - 37.9 °F 47% 30.28 in 10.0 mi NNE 8.1 mph - N/A   Clear